Location: Dompnac
(44.5644°N, 4.1026°E)
Time: 11:23:25
(UTC+00:00)

Cosmos 1867 - Pass Details

Date: 19 September 2020
Orbit: 777 x 799 km, 65.0° (Epoch: 29 October)

Event Time Altitude Azimuth Distance (km) Brightness Sun altitude
Rises 19:37:50 0° 320° (NW) 3,312 7.9 -20.2°
Reaches altitude 10° 19:40:22 10° 314° (NW) 2,378 7.1 -20.6°
Maximum altitude 19:45:32 45° 244° (WSW) 1,084 4.5 -21.4°
Enters shadow 19:49:02 19° 180° (S) 1,796 5.2 -22.0°
